sat.trackr.live / text

‹ back to catalog

STARLINK-11087 [DTC]

NORAD 59421 · 2024-065A

PAYLOAD ACTIVE UNKNOWN

§ Identity

Operator
Country
US
Launch date
2024-04-07
Launch site
AFWTR
Launch vehicle
Mass (kg)
RCS (m²)

Purposes: comms

External: N2YO · Heavens-Above · Gunter

§ Orbital elements

Epoch: 2026-09-21T13:14:39.334560Z

Period
91.74 min
Inclination
53.1584°
Eccentricity
0.0001093
Mean motion
15.69700686 rev/d
Perigee alt
359.0 km
Apogee alt
360.5 km
Semi-major
6,737.9 km
B*
1.3507e-5
RAAN
208.4892°
Arg perigee
102.5907°
Mean anomaly
257.5234°
Rev number
14,227

§ Raw data

STARLINK-11087 [DTC]1 59421U 24065A   26264.55184415  .00001047  00000+0  13507-4 0  99922 59421  53.1584 208.4892 0001093 102.5907 257.5234 15.69700686142271

JSON: /api/v1/satellites/59421 · /tle

For live sub-satellite position, see the globe view (requires WebGL).

§ Visibility from observer

Set your observer location to see the next 7 days of passes ≥ 10°. The values pass through the URL so the page stays shareable.

No JS? Fill the form by hand. The geolocation button needs JavaScript.